When you browse on this site, cookies collect data to enhance your experience and personalize the content and advertising you see.
Visit our Privacy Policy to learn more. By continuing to use the site, you agree to this use of cookies and data.
  • In Hungary
  • List of Countries
  • For 7 days
  • Water Temperature
  • Weather Map
  • News
  • Weather Widgets
  • user-avatar
    Login

    Hourly Weather Marl

    Today, 8 December, Sunday

    Time Temperature Precipitation Wind Pressure Humidity
    00:00 +7°C° 0 mm 6 mps 753 mmHg 80%
    01:00 +5°C° 0 mm 6 mps 752 mmHg 81%
    02:00 +5°C° 0 mm 7 mps 751 mmHg 82%
    03:00 +5°C° 0 mm 7 mps 750 mmHg 83%
    04:00 +6°C° 0 mm 7 mps 749 mmHg 82%
    05:00 +6°C° 0 mm 7 mps 749 mmHg 81%
    06:00 +7°C° 0 mm 8 mps 748 mmHg 81%
    07:00 +7°C° 0.2 mm 8 mps 747 mmHg 81%
    08:00 +7°C° 0.2 mm 9 mps 746 mmHg 81%
    09:00 +8°C° 0.2 mm 9 mps 745 mmHg 82%
    10:00 +8°C° 0.6 mm 9 mps 745 mmHg 83%
    11:00 +10°C° 0.6 mm 9 mps 745 mmHg 84%
    12:00 +10°C° 0.6 mm 9 mps 745 mmHg 85%
    13:00 +9°C° 0.1 mm 8 mps 745 mmHg 80%
    14:00 +9°C° 0.1 mm 7 mps 745 mmHg 75%
    15:00 +8°C° 0.1 mm 6 mps 745 mmHg 70%
    16:00 +8°C° 0 mm 6 mps 745 mmHg 71%
    17:00 +7°C° 0 mm 6 mps 745 mmHg 71%
    18:00 +7°C° 0 mm 6 mps 744 mmHg 72%
    19:00 +7°C° 0.1 mm 6 mps 744 mmHg 73%
    20:00 +6°C° 0.1 mm 7 mps 744 mmHg 75%
    21:00 +5°C° 0.1 mm 7 mps 744 mmHg 77%
    22:00 +5°C° 0 mm 7 mps 743 mmHg 77%
    23:00 +5°C° 0 mm 8 mps 743 mmHg 76%

    Tomorrow, 9 December, Monday

    Time Temperature Precipitation Wind Pressure Humidity
    00:00 +5°C° 0 mm 8 mps 743 mmHg 76%
    01:00 +5°C° 0.2 mm 8 mps 742 mmHg 77%
    02:00 +5°C° 0.2 mm 8 mps 741 mmHg 78%
    03:00 +3°C° 0.2 mm 9 mps 740 mmHg 79%
    04:00 +4°C° 0.5 mm 8 mps 740 mmHg 80%
    05:00 +4°C° 0.5 mm 8 mps 739 mmHg 82%
    06:00 +4°C° 0.5 mm 8 mps 739 mmHg 83%
    07:00 +4°C° 0.6 mm 8 mps 739 mmHg 84%
    08:00 +4°C° 0.6 mm 7 mps 738 mmHg 84%
    09:00 +4°C° 0.6 mm 6 mps 738 mmHg 85%
    10:00 +5°C° 0.7 mm 6 mps 739 mmHg 83%
    11:00 +5°C° 0.7 mm 6 mps 740 mmHg 80%
    12:00 +7°C° 0.7 mm 6 mps 741 mmHg 77%
    13:00 +5°C° 0.2 mm 6 mps 742 mmHg 75%
    14:00 +5°C° 0.2 mm 7 mps 744 mmHg 73%
    15:00 +5°C° 0.2 mm 7 mps 745 mmHg 70%
    16:00 +5°C° 0 mm 7 mps 747 mmHg 69%
    17:00 +4°C° 0 mm 7 mps 749 mmHg 67%
    18:00 +4°C° 0 mm 6 mps 751 mmHg 66%
    19:00 +3°C° 0.1 mm 6 mps 753 mmHg 67%
    20:00 +3°C° 0.1 mm 6 mps 754 mmHg 68%
    21:00 +3°C° 0.1 mm 6 mps 755 mmHg 69%
    22:00 +3°C° 0 mm 6 mps 756 mmHg 71%
    23:00 +2°C° 0 mm 5 mps 757 mmHg 72%

    Day after tomorrow, 10 December, Tuesday

    Time Temperature Precipitation Wind Pressure Humidity
    00:00 +2°C° 0 mm 5 mps 758 mmHg 73%
    01:00 +2°C° 0 mm 5 mps 759 mmHg 74%
    02:00 +2°C° 0 mm 5 mps 759 mmHg 75%
    03:00 +3°C° 0 mm 4 mps 760 mmHg 76%
    04:00 +1°C° 0 mm 4 mps 761 mmHg 78%
    05:00 +2°C° 0 mm 3 mps 761 mmHg 81%
    06:00 +1°C° 0 mm 3 mps 762 mmHg 83%
    07:00 +2°C° 0 mm 3 mps 762 mmHg 83%
    08:00 +2°C° 0 mm 3 mps 762 mmHg 82%
    09:00 +1°C° 0 mm 4 mps 762 mmHg 81%
    10:00 +1°C° 0 mm 4 mps 762 mmHg 76%
    11:00 +3°C° 0 mm 4 mps 762 mmHg 71%
    12:00 +4°C° 0 mm 4 mps 762 mmHg 65%
    13:00 +3°C° 0 mm 4 mps 761 mmHg 65%
    14:00 +3°C° 0 mm 4 mps 760 mmHg 64%
    15:00 +3°C° 0 mm 4 mps 759 mmHg 63%
    16:00 +2°C° 0 mm 5 mps 759 mmHg 63%
    17:00 +2°C° 0 mm 5 mps 758 mmHg 63%
    18:00 +1°C° 0 mm 6 mps 758 mmHg 63%
    19:00 +2°C° 0 mm 6 mps 757 mmHg 60%
    20:00 +2°C° 0 mm 6 mps 757 mmHg 56%
    21:00 +2°C° 0 mm 7 mps 756 mmHg 53%
    22:00 +2°C° 0.3 mm 7 mps 755 mmHg 57%
    23:00 +2°C° 0.3 mm 7 mps 754 mmHg 61%

    11 December, Wednesday

    Time Temperature Precipitation Wind Pressure Humidity
    00:00 +2°C° 0.3 mm 7 mps 753 mmHg 65%
    01:00 +3°C° 0.4 mm 7 mps 753 mmHg 69%
    02:00 +3°C° 0.4 mm 7 mps 753 mmHg 72%
    03:00 +3°C° 0.4 mm 7 mps 753 mmHg 76%
    04:00 +3°C° 0.2 mm 6 mps 753 mmHg 79%
    05:00 +3°C° 0.2 mm 5 mps 753 mmHg 83%
    06:00 +3°C° 0.2 mm 5 mps 753 mmHg 86%
    07:00 +4°C° 0 mm 4 mps 753 mmHg 86%
    08:00 +4°C° 0 mm 4 mps 753 mmHg 86%
    09:00 +4°C° 0 mm 3 mps 753 mmHg 86%
    10:00 +4°C° 0.2 mm 3 mps 753 mmHg 86%
    11:00 +4°C° 0.2 mm 3 mps 753 mmHg 86%
    12:00 +5°C° 0.2 mm 3 mps 752 mmHg 86%
    13:00 +4°C° 0.1 mm 3 mps 752 mmHg 86%
    14:00 +4°C° 0.1 mm 3 mps 752 mmHg 86%
    15:00 +4°C° 0.1 mm 3 mps 751 mmHg 86%
    16:00 +4°C° 0 mm 3 mps 751 mmHg 86%
    17:00 +3°C° 0 mm 3 mps 751 mmHg 87%
    18:00 +3°C° 0 mm 4 mps 751 mmHg 88%
    19:00 +3°C° 0 mm 4 mps 751 mmHg 87%
    20:00 +3°C° 0 mm 4 mps 751 mmHg 87%
    21:00 +3°C° 0 mm 4 mps 750 mmHg 86%
    22:00 +1°C° 0 mm 4 mps 750 mmHg 85%
    23:00 +1°C° 0 mm 4 mps 749 mmHg 85%

    12 December, Thursday

    Time Temperature Precipitation Wind Pressure Humidity
    00:00 +1°C° 0 mm 4 mps 749 mmHg 84%
    01:00 +1°C° 0.1 mm 4 mps 749 mmHg 85%
    02:00 +1°C° 0.1 mm 4 mps 749 mmHg 87%
    03:00 +3°C° 0.1 mm 4 mps 748 mmHg 89%
    04:00 +3°C° 0.3 mm 4 mps 749 mmHg 89%
    05:00 +3°C° 0.3 mm 4 mps 749 mmHg 89%
    06:00 +3°C° 0.3 mm 4 mps 749 mmHg 89%
    07:00 +2°C° 0 mm 5 mps 750 mmHg 87%
    08:00 +2°C° 0 mm 5 mps 750 mmHg 86%
    09:00 +2°C° 0 mm 5 mps 750 mmHg 84%
    10:00 +2°C° 0 mm 5 mps 750 mmHg 80%
    11:00 +3°C° 0 mm 5 mps 750 mmHg 76%
    12:00 +3°C° 0 mm 5 mps 750 mmHg 72%
    13:00 +3°C° 0 mm 5 mps 750 mmHg 73%
    14:00 +3°C° 0 mm 5 mps 749 mmHg 73%
    15:00 +2°C° 0 mm 5 mps 749 mmHg 74%
    16:00 +2°C° 0 mm 5 mps 748 mmHg 74%
    17:00 +2°C° 0 mm 6 mps 747 mmHg 74%
    18:00 +2°C° 0 mm 7 mps 746 mmHg 73%
    19:00 +3°C° 0 mm 7 mps 745 mmHg 73%
    20:00 +3°C° 0 mm 7 mps 743 mmHg 73%
    21:00 +4°C° 0 mm 8 mps 742 mmHg 73%
    22:00 +4°C° 1.1 mm 8 mps 740 mmHg 77%
    23:00 +3°C° 1.1 mm 9 mps 738 mmHg 80%

    13 December, Friday

    Time Temperature Precipitation Wind Pressure Humidity
    00:00 +3°C° 1.1 mm 9 mps 736 mmHg 83%
    01:00 +5°C° 1.6 mm 9 mps 734 mmHg 85%
    02:00 +5°C° 1.6 mm 9 mps 733 mmHg 86%
    03:00 +6°C° 1.6 mm 8 mps 731 mmHg 88%
    04:00 +5°C° 1.9 mm 8 mps 731 mmHg 85%
    05:00 +5°C° 1.9 mm 8 mps 730 mmHg 82%
    06:00 +5°C° 1.9 mm 7 mps 730 mmHg 79%
    07:00 +5°C° 0.2 mm 8 mps 731 mmHg 76%
    08:00 +4°C° 0.2 mm 8 mps 732 mmHg 73%
    09:00 +3°C° 0.2 mm 9 mps 733 mmHg 70%
    10:00 +3°C° 0.3 mm 9 mps 733 mmHg 68%
    11:00 +3°C° 0.3 mm 9 mps 734 mmHg 66%
    12:00 +3°C° 0.3 mm 9 mps 734 mmHg 63%
    13:00 +3°C° 0.2 mm 9 mps 735 mmHg 64%
    14:00 +3°C° 0.2 mm 9 mps 735 mmHg 65%
    15:00 +4°C° 0.2 mm 8 mps 735 mmHg 65%
    16:00 +4°C° 0.1 mm 8 mps 736 mmHg 67%
    17:00 +2°C° 0.1 mm 8 mps 736 mmHg 68%
    18:00 +3°C° 0.1 mm 7 mps 736 mmHg 70%
    19:00 +3°C° 0.1 mm 7 mps 736 mmHg 70%
    20:00 +3°C° 0.1 mm 7 mps 737 mmHg 71%
    21:00 +3°C° 0.1 mm 7 mps 737 mmHg 71%
    22:00 +3°C° 0 mm 6 mps 737 mmHg 74%
    23:00 +3°C° 0 mm 6 mps 737 mmHg 76%
    Show more